[[{"header":{"parameterUnit":"m.s-1","parameterCategory":1,"la1":30.2991,"la2":30.254,"lo1":-89.0895,"lo2":-89.0444,"dy":0.0017,"dx":0.0017,"nx":28,"ny":28,"refTime":"2025-03-22T03:00:00:Z","depth":0,"parameterNumber":2,"parameterNumberName":"U-component_of_WINDS"},"data":[0,0,0,0,0,0,0,0,0,0,0,0,0,0,0,0,0,0,0,0,0,0,0,0,0,0,0,0,0,0,0,0,0,0,0,0,0,0,0,0,0,0,0,0,0,0,0,0,0,0,0,0,0,0,0,0,0,0,0.492,0.492,0,0.4927,0.4927,0.4928,0.4919,0.4919,0.4919,0.4918,0.4924,0.4924,0.4925,0,0,0,0,0,0,0,0,0,0,0,0,0,0.4895,0.4895,0.492,0.492,0.492,0.4927,0.4927,0.4928,0.4919,0.4919,0.4918,0.4918,0.4924,0.4924,0.4925,0,0,0,0,0,0,0,0,0,0,0,0,0,0.4904,0.4895,0.492,0.4917,0.4917,0.4927,0.4927,0.4928,0.4919,0.4919,0.4918,0.4918,0.4924,0.4924,0.4925,0.4939,0,0,0.4927,0.4927,0,0,0,0,0,0,0,0,0.4904,0.4905,0.4917,0.4917,0.4917,0.4922,0.4921,0.4931,0.4919,0.4918,0.4918,0.4918,0.4924,0.4924,0.4927,0.4939,0.4939,0.4927,0.4928,0.4928,0.4928,0,0,0,0,0,0,0,0.4903,0.4905,0.4923,0.4917,0.4917,0.4914,0.4915,0.4923,0.4923,0.4918,0.4918,0.4919,0.4923,0.4926,0.4927,0.4939,0.4927,0.4928,0.4928,0.4928,0.496,0.4961,0,0,0,0,0,0,0.4903,0.4904,0.4923,0.4923,0.4909,0.4915,0.4916,0.4921,0.4923,0.4923,0.4919,0.4918,0.4925,0.4926,0.4927,0.4941,0.4928,0.4928,0.4929,0.496,0.496,0.4961,0,0,0,0,0,0,0.4903,0.4905,0.4922,0.4913,0.4915,0.4916,0.4921,0.4921,0.4924,0.4924,0.4924,0.4922,0.4925,0.4926,0.4935,0.4941,0.4929,0.4929,0.4959,0.496,0.4961,0.4971,0,0,0,0,0,0,0.4902,0.4905,0.4911,0.4914,0.4916,0.4932,0.4922,0.4922,0.4925,0.4924,0.4927,0.4926,0.4924,0.4934,0.4936,0.4942,0.493,0.4959,0.496,0.496,0.497,0.4972,0.4974,0,0,0,0,0,0.4901,0.4914,0.4911,0.4914,0.4924,0.4932,0.4933,0.4931,0.4926,0.4931,0.4931,0.4926,0.4941,0.4935,0.4937,0.4944,0.4958,0.4959,0.496,0.497,0.4972,0.4974,0,0,0,0,0,0,0.4912,0.4914,0.4911,0.4926,0.4929,0.4931,0.4938,0.4934,0.4938,0.4937,0.4934,0.4934,0.4944,0.4945,0.4939,0.4956,0.4948,0.495,0.4955,0.4957,0.4959,0.4958,0.493,0,0,0,0,0,0.4916,0.4923,0.4924,0.4937,0.4938,0.4938,0.4941,0.4939,0.4942,0.4943,0.4944,0.4946,0.4951,0.4954,0.4959,0.497,0.497,0.4975,0.4977,0.4979,0.498,0.4984,0.4986,0.4964,0.4964,0.4964,0,0,0.4924,0.4926,0.4931,0.4939,0.4941,0.4947,0.4939,0.4947,0.4951,0.4944,0.4953,0.4953,0.4955,0.4965,0.497,0.4966,0.4985,0.498,0.4981,0.4981,0.4985,0.4987,0.4989,0.4965,0.4965,0.4965,0,0,0.4942,0.4945,0.4954,0.4956,0.496,0.4959,0.4961,0.4963,0.4963,0.4972,0.4966,0.4971,0.498,0.4981,0.4983,0.4999,0.4994,0.5,0.5009,0.5013,0.5015,0.5016,0.502,0.5022,0.5001,0.5001,0.5001,0,0.4951,0.4962,0.496,0.4967,0.497,0.4964,0.4972,0.4974,0.4979,0.498,0.4976,0.4986,0.4987,0.4996,0.5,0.5002,0.5003,0.5,0.5015,0.5016,0.5018,0.5022,0.5023,0.5002,0.5002,0.5002,0.5002,0,0.4972,0.4979,0.4986,0.499,0.4994,0.5002,0.5,0.5003,0.5001,0.5,0.5007,0.5008,0.5012,0.5014,0.5012,0.5023,0.502,0.5016,0.5008,0.502,0.5024,0.5026,0.5003,0.5003,0.5002,0.5002,0,0,0.4998,0.4999,0.5002,0.5003,0.5005,0.501,0.5017,0.5021,0.5023,0.5026,0.503,0.5037,0.5032,0.5034,0.5031,0.5035,0.5046,0.503,0.503,0.5032,0.5056,0.5058,0.506,0.5043,0.5043,0.5043,0.5055,0,0.5014,0.5027,0.5024,0.5036,0.5041,0.5035,0.504,0.5042,0.5041,0.5044,0.5042,0.5047,0.5041,0.5042,0.5045,0.5044,0.505,0.5043,0.5046,0.5046,0.5045,0.5062,0.5066,0.5077,0.5057,0.5057,0.5057,0,0.5036,0.5039,0.5051,0.5051,0.5053,0.5058,0.506,0.5064,0.5064,0.5063,0.5064,0.5061,0.5066,0.5059,0.5065,0.506,0.506,0.506,0.506,0.506,0.5052,0.5061,0.508,0.5082,0.5059,0.5059,0.5059,0,0.5051,0.5058,0.5066,0.5067,0.5067,0.5071,0.5071,0.5071,0.5073,0.5074,0.5075,0.5077,0.5078,0.5079,0.5076,0.5071,0.5082,0.5075,0.508,0.508,0.5082,0.5081,0.51,0.5084,0.5084,0.5084,0.5084,0,0.5069,0.5076,0.5072,0.5077,0.5084,0.5081,0.5088,0.5087,0.5087,0.509,0.5085,0.5088,0.5083,0.5086,0.5083,0.5087,0.5088,0.5086,0.5085,0.5086,0.5086,0.5086,0.5085,0.5084,0.5084,0.5084,0.5084,0,0.5087,0.5085,0.5093,0.5092,0.5092,0.5097,0.5096,0.5099,0.5097,0.5101,0.5102,0.5099,0.5101,0.5098,0.51,0.5097,0.5103,0.5102,0.5103,0.5102,0.5107,0.5106,0.5125,0.5127,0.5111,0.5111,0.5111,0,0.5099,0.5104,0.5103,0.5105,0.5106,0.5109,0.5111,0.5107,0.5108,0.5108,0.5111,0.5113,0.5114,0.5118,0.5115,0.5116,0.5113,0.512,0.5113,0.5114,0.5112,0.5111,0.5111,0.5121,0.5121,0.5122,0.5122,0,0.5119,0.5117,0.512,0.5121,0.5123,0.5124,0.5125,0.5127,0.5122,0.5124,0.5126,0.5127,0.5129,0.513,0.513,0.5129,0.5124,0.5124,0.5125,0.5125,0.5126,0.5124,0.5106,0.5123,0.5123,0.5123,0.5123,0.5123,0.5133,0.5136,0.5136,0.5138,0.5139,0.5139,0.5142,0.514,0.5142,0.5143,0.514,0.5142,0.5141,0.514,0.514,0.5141,0.5138,0.5139,0.514,0.514,0.514,0.5126,0.5141,0.5141,0.5141,0.5141,0.5141,0,0.5151,0.515,0.5152,0.5153,0.5155,0.5151,0.5151,0.5152,0.5154,0.5154,0.5155,0.5156,0.5157,0.5154,0.5154,0.5155,0.5153,0.5155,0.5155,0.5154,0.5144,0.5142,0.5157,0.5157,0.5157,0.5157,0.5157,0.5157,0.516,0.5166,0.5164,0.5168,0.5167,0.517,0.517,0.517,0.5169,0.5171,0.5172,0.517,0.5168,0.5167,0.5167,0.5166,0.5166,0.5169,0.5167,0.5157,0.5155,0.5154,0.5152,0.5169,0.5169,0.5178,0.5178,0.5178]},{"header":{"parameterUnit":"m.s-1","parameterCategory":1,"la1":30.2991,"la2":30.254,"lo1":-89.0895,"lo2":-89.0444,"dy":0.0017,"dx":0.0017,"nx":28,"ny":28,"refTime":"2025-03-22T03:00:00:Z","depth":0,"parameterNumber":3,"parameterNumberName":"V-component_of_WINDS"},"data":[0,0,0,0,0,0,0,0,0,0,0,0,0,0,0,0,0,0,0,0,0,0,0,0,0,0,0,0,0,0,0,0,0,0,0,0,0,0,0,0,0,0,0,0,0,0,0,0,0,0,0,0,0,0,0,0,0,0,3.1808,3.1808,0,3.1849,3.1849,3.1849,3.1804,3.1802,3.1801,3.1799,3.1839,3.1841,3.1844,0,0,0,0,0,0,0,0,0,0,0,0,0,3.1688,3.169,3.1808,3.1808,3.1809,3.1848,3.1849,3.185,3.1804,3.1802,3.18,3.1798,3.1838,3.1841,3.1844,0,0,0,0,0,0,0,0,0,0,0,0,0,3.1735,3.1691,3.1808,3.1791,3.179,3.1848,3.1849,3.185,3.1805,3.1802,3.18,3.1797,3.1837,3.1841,3.1845,3.1921,0,0,3.1857,3.1858,0,0,0,0,0,0,0,0,3.1733,3.174,3.1793,3.1792,3.1791,3.1819,3.1821,3.1873,3.1806,3.1799,3.1799,3.1796,3.1834,3.1838,3.1851,3.1922,3.1924,3.1857,3.1859,3.1861,3.1862,0,0,0,0,0,0,0,3.1729,3.1738,3.1824,3.1794,3.1793,3.178,3.1784,3.1831,3.183,3.18,3.1796,3.1802,3.1833,3.1848,3.1852,3.1925,3.1857,3.186,3.1863,3.1864,3.2056,3.2059,0,0,0,0,0,0,3.1728,3.1735,3.1823,3.1825,3.1755,3.1785,3.1789,3.1812,3.183,3.183,3.1804,3.18,3.1842,3.1847,3.1853,3.194,3.1861,3.1865,3.1867,3.2054,3.2057,3.206,0,0,0,0,0,0,3.1726,3.1737,3.1821,3.1779,3.1789,3.179,3.1816,3.1815,3.1829,3.1833,3.1833,3.1819,3.184,3.1847,3.1903,3.1941,3.1867,3.187,3.2051,3.2055,3.2059,3.2118,0,0,0,0,0,0,3.1723,3.1736,3.1766,3.178,3.1792,3.1872,3.1819,3.1817,3.1836,3.1831,3.1847,3.1847,3.1839,3.1898,3.1907,3.1945,3.1873,3.2047,3.2052,3.2057,3.2112,3.2123,3.2133,0,0,0,0,0,3.1718,3.1781,3.1768,3.1778,3.1829,3.1874,3.1881,3.187,3.184,3.1869,3.1871,3.1847,3.1936,3.1904,3.1914,3.1954,3.2045,3.2051,3.2057,3.2108,3.2121,3.2132,0,0,0,0,0,0,3.1771,3.1783,3.1768,3.1837,3.1855,3.1867,3.1903,3.1885,3.1911,3.1905,3.189,3.1894,3.1953,3.1959,3.1923,3.2027,3.1985,3.1994,3.202,3.2033,3.2043,3.2039,3.1877,0,0,0,0,0,3.1791,3.1828,3.1836,3.1896,3.1906,3.1903,3.1922,3.1912,3.193,3.1937,3.1943,3.1961,3.1992,3.2013,3.2043,3.2113,3.2115,3.2146,3.2156,3.2164,3.2171,3.2206,3.2219,3.208,3.208,3.208,0,0,3.1832,3.1843,3.1867,3.1907,3.1919,3.1956,3.191,3.1951,3.1978,3.1943,3.1996,3.2001,3.2019,3.2082,3.211,3.2089,3.221,3.2172,3.2179,3.2181,3.2214,3.2227,3.2239,3.2084,3.2083,3.2083,0,0,3.1925,3.1938,3.1988,3.2002,3.2021,3.2018,3.2031,3.2045,3.2047,3.2099,3.2073,3.2104,3.216,3.2173,3.2187,3.2282,3.226,3.2292,3.2345,3.2379,3.239,3.2399,3.2431,3.2443,3.23,3.23,3.23,0,3.1973,3.2028,3.2016,3.2059,3.2076,3.2047,3.2096,3.2109,3.2137,3.2149,3.2126,3.2193,3.2203,3.2267,3.229,3.2304,3.2315,3.229,3.2389,3.2399,3.2408,3.2437,3.245,3.2303,3.2303,3.2303,3.2302,0,3.2085,3.2124,3.2162,3.2189,3.221,3.2257,3.225,3.2273,3.2261,3.226,3.2313,3.2324,3.2354,3.2369,3.2358,3.2431,3.2417,3.2392,3.2349,3.2425,3.2452,3.2464,3.2308,3.2307,3.2306,3.2305,0,0,3.2213,3.2231,3.2245,3.2256,3.2274,3.2303,3.2347,3.2376,3.2395,3.2415,3.245,3.2496,3.2473,3.2488,3.2478,3.2509,3.258,3.248,3.248,3.2496,3.2658,3.2675,3.2689,3.2566,3.2569,3.257,3.2656,0,3.2304,3.2379,3.2369,3.2441,3.2475,3.2447,3.2484,3.2499,3.2499,3.2527,3.2527,3.2559,3.2527,3.2536,3.2565,3.2566,3.2612,3.256,3.2596,3.2598,3.2591,3.2704,3.2722,3.2802,3.2667,3.2669,3.267,0,3.242,3.2444,3.2519,3.253,3.2543,3.2578,3.2602,3.263,3.2645,3.2643,3.266,3.2643,3.2685,3.2643,3.2699,3.2663,3.2678,3.268,3.2683,3.2684,3.2637,3.2706,3.2828,3.2839,3.2687,3.2686,3.2685,0,3.2502,3.2553,3.2603,3.2614,3.2629,3.2653,3.266,3.2672,3.269,3.2711,3.2722,3.2748,3.2762,3.2782,3.2772,3.2743,3.2829,3.2787,3.2826,3.2826,3.2844,3.2843,3.2968,3.2858,3.2857,3.2857,3.2857,0,3.2604,3.265,3.264,3.2671,3.2722,3.2709,3.2759,3.2762,3.2773,3.2803,3.2781,3.281,3.2796,3.2824,3.2817,3.2862,3.2869,3.2867,3.2865,3.2868,3.2868,3.2876,3.2869,3.286,3.286,3.2859,3.2858,0,3.2703,3.2699,3.2752,3.2761,3.2764,3.28,3.2807,3.2835,3.2834,3.2872,3.288,3.2877,3.2908,3.29,3.2934,3.2929,3.2986,3.2978,3.2981,3.2978,3.3017,3.3013,3.315,3.3166,3.3047,3.3049,3.305,0,3.2767,3.2802,3.2814,3.2833,3.2841,3.2872,3.2889,3.2877,3.2896,3.2914,3.294,3.2968,3.299,3.304,3.304,3.3065,3.3056,3.3102,3.3059,3.3061,3.3053,3.305,3.3053,3.311,3.3111,3.3113,3.3113,0,3.2881,3.2876,3.2902,3.2927,3.2948,3.2967,3.2983,3.3,3.2988,3.301,3.3041,3.3058,3.3092,3.312,3.3142,3.3148,3.3128,3.3127,3.3137,3.314,3.314,3.3138,3.3002,3.3124,3.3123,3.3122,3.3121,3.3121,3.2963,3.2991,3.3004,3.3032,3.3043,3.3059,3.3085,3.3086,3.3112,3.3138,3.3129,3.3164,3.3176,3.3204,3.3213,3.3238,3.3221,3.3236,3.3239,3.3243,3.3246,3.3137,3.3243,3.3243,3.3242,3.3242,3.3242,0,3.3073,3.3079,3.3105,3.3129,3.3151,3.3131,3.3148,3.3167,3.3198,3.3211,3.3232,3.3267,3.3293,3.3295,3.3319,3.3339,3.3331,3.3346,3.3343,3.3344,3.3262,3.325,3.3352,3.3352,3.3352,3.3352,3.3352,3.3352,3.3132,3.3179,3.3175,3.3226,3.3231,3.3265,3.3276,3.3289,3.3299,3.3338,3.336,3.3361,3.3369,3.3393,3.3416,3.3415,3.3424,3.3443,3.3439,3.3362,3.335,3.334,3.3328,3.3445,3.3445,3.3518,3.3519,3.3519]}]]